User: anonymous   Login
Location: Unspecified
(0.0000°N, 0.0000°E)
Time: 17:31:50
(UTC+00:00)
Language:

IBEX - Orbit

View from above orbital plane
View from above orbital plane
View from above satellite
View from above satellite

Ground track
Ground track

The orbit data is extracted from the following two-line orbital elements,

1 33401U 08051A   15151.11484533 -.00000745  00000-0  00000+0 0  9993
2 33401 013.8870 108.8706 3887853 054.4804 359.0863 00.09914520  2812
Epoch (UTC): 31 May 2015 02:45:22
Eccentricity: 0.3887853
inclination: 13.8870°
perigee height: 114146 km
apogee height: 267475 km
right ascension of ascending node: 108.8706°
argument of perigee: 54.4804°
revolutions per day: 0.09914520
mean anomaly at epoch: 359.0863°
orbit number at epoch: 281

The dashed part of the orbit path shows where the satellite is in the earth's shadow,  

DLR